EW2974 Weather Reports


Display with metric or nautical units.
time (UTC)temp
F
wind
direction
speed
MPH
gust
MPH
rain 1hr
in
rain 24hr
in
rain mn
in
humidity
%
barometer
mb
20260905022405 70 186 0.0 0.0 0.00 0.45 0.30 95 1012.4
20260905021905 70 186 0.0 0.0 0.00 0.45 0.30 95 1012.3
20260905020904 70 186 0.0 0.0 0.00 0.45 0.30 95 1012.3
20260905020405 71 186 0.0 0.0 0.00 0.45 0.30 95 1012.3
20260905015905 71 186 0.0 0.0 0.00 0.45 0.30 94 1012.3
20260905015405 71 186 0.0 0.0 0.00 0.45 0.30 94 1012.4
20260905014904 71 186 0.0 0.0 0.00 0.45 0.30 94 1012.3
20260905014404 71 186 0.0 0.0 0.00 0.45 0.30 95 1012.3
20260905013405 71 186 0.0 0.0 0.00 0.45 0.30 94 1012.3
20260905012905 71 186 0.0 0.0 0.00 0.45 0.30 94 1012.2
20260905011904 71 186 0.0 0.0 0.00 0.45 0.30 94 1012.4
20260905011404 71 186 0.0 0.0 0.00 0.45 0.30 94 1012.4
20260905010904 71 186 0.0 0.0 0.00 0.45 0.30 94 1012.3
20260905010404 71 186 0.0 0.0 0.00 0.45 0.30 94 1012.3
20260905005905 72 186 0.0 0.0 0.00 0.45 0.30 94 1012.3
20260905005405 72 186 0.0 0.0 0.00 0.45 0.30 94 1012.1
20260905004904 72 186 0.0 0.0 0.00 0.45 0.30 94 1012.1
20260905004404 72 186 0.0 0.0 0.00 0.45 0.30 94 1012.1
20260905003905 72 186 0.0 0.0 0.00 0.46 0.30 94 1012.0
20260905003405 72 186 0.0 0.0 0.00 0.46 0.30 94 1012.0
20260905002905 72 186 0.0 0.0 0.00 0.47 0.30 94 1011.9
20260905002404 72 186 0.0 0.0 0.00 0.47 0.30 94 1011.8
20260905001905 73 186 0.0 0.0 0.00 0.47 0.30 93 1011.9
20260905001405 73 186 0.0 0.0 0.00 0.47 0.30 93 1011.8
20260905000905 73 186 0.0 0.0 0.00 0.49 0.30 93 1011.8
20260904235905 73 186 0.0 0.0 0.00 0.52 0.30 93 1012.0
20260904235405 73 186 0.0 0.0 0.00 0.53 0.30 93 1012.1
20260904234905 73 186 0.0 0.0 0.00 0.55 0.30 93 1012.1
20260904234405 74 186 0.0 0.0 0.00 0.55 0.30 93 1012.4
20260904232904 74 186 0.0 0.0 0.00 0.59 0.30 91 1012.5
20260904232404 74 186 0.0 0.0 0.00 0.60 0.30 91 1012.6
20260904231905 74 186 0.0 0.0 0.00 0.60 0.30 91 1012.6
20260904231404 75 186 0.0 0.0 0.00 0.61 0.30 91 1012.4
20260904230905 75 186 0.0 0.0 0.00 0.63 0.30 91 1012.4
20260904230405 75 186 0.0 0.0 0.00 0.67 0.30 91 1012.4
20260904225905 75 186 0.0 0.0 0.00 0.69 0.30 91 1012.3
20260904225404 75 186 0.0 0.0 0.00 0.71 0.30 91 1012.2
20260904224905 75 186 0.0 0.0 0.00 0.71 0.30 90 1012.2
20260904224405 75 186 0.0 0.0 0.00 0.71 0.30 89 1012.1
20260904223905 75 186 0.0 0.0 0.00 0.72 0.30 88 1012.0
20260904223405 75 186 0.0 0.0 0.00 0.74 0.30 88 1012.0
20260904222904 75 186 0.0 0.0 0.00 0.74 0.30 88 1012.0
20260904221904 75 186 0.0 0.0 0.00 0.74 0.30 88 1011.7
20260904221404 75 186 0.0 0.0 0.00 0.74 0.30 87 1011.6
20260904220404 75 186 0.0 0.0 0.00 0.74 0.30 86 1011.4
20260904215405 75 186 0.0 0.0 0.00 0.74 0.30 86 1011.3
20260904214404 76 186 0.0 0.0 0.00 0.74 0.30 86 1011.4
20260904213904 76 186 0.0 0.0 0.00 0.74 0.30 84 1011.3
20260904213405 76 186 0.0 0.0 0.00 0.74 0.30 85 1011.1
20260904212405 76 186 0.0 0.0 0.00 0.74 0.30 85 1010.9
20260904211904 76 186 0.0 0.0 0.00 0.74 0.30 84 1010.9
20260904211404 77 186 0.0 0.0 0.00 0.74 0.30 83 1010.9
20260904210904 77 186 0.0 0.0 0.00 0.74 0.30 80 1010.8
20260904210405 77 186 0.0 0.0 0.00 0.74 0.30 82 1011.0
20260904205904 77 186 0.0 0.0 0.00 0.74 0.30 82 1010.9
20260904204905 77 255 0.0 0.0 0.00 0.74 0.30 83 1010.9
20260904204405 77 267 0.0 1.0 0.00 0.74 0.30 80 1011.0
20260904203404 77 308 0.0 5.0 0.00 0.74 0.30 82 1011.1
20260904202905 77 205 1.0 3.0 0.00 0.74 0.30 83 1011.2
20260904202405 77 254 3.0 8.0 0.00 0.76 0.30 81 1011.4
20260904201905 77 196 0.0 0.0 0.00 0.89 0.30 82 1011.4
20260904201405 77 196 1.0 1.0 0.00 0.89 0.30 84 1011.5
20260904200905 76 251 0.0 0.0 0.00 1.04 0.30 84 1011.5
20260904200404 76 251 0.0 0.0 0.00 1.17 0.30 86 1011.5
20260904195904 76 251 0.0 0.0 0.00 1.17 0.30 85 1011.5
20260904194905 76 251 2.0 6.0 0.00 1.23 0.30 84 1012.0
20260904193904 76 258 0.0 5.0 0.00 1.23 0.30 85 1012.3
20260904193405 75 227 0.0 1.0 0.00 1.23 0.30 86 1012.4
20260904192905 75 227 0.0 0.0 0.00 1.23 0.30 89 1012.7
20260904192405 75 227 0.0 0.0 0.00 1.23 0.30 88 1012.7
20260904191904 75 227 0.0 0.0 0.00 1.23 0.30 88 1012.8
20260904191404 75 227 0.0 0.0 0.00 1.23 0.30 88 1012.6
20260904190405 75 227 0.0 0.0 0.00 1.23 0.30 89 1012.2
20260904185904 75 227 0.0 0.0 0.00 1.23 0.30 90 1012.2
20260904185404 75 227 0.0 0.0 0.00 1.23 0.30 89 1012.4
20260904184904 75 227 0.0 0.0 0.00 1.23 0.30 89 1012.1
20260904184404 76 227 0.0 0.0 0.00 1.23 0.30 89 1012.5
20260904182905 76 240 0.0 3.0 0.00 1.23 0.30 90 1013.1
20260904182404 76 257 1.0 6.0 0.00 1.23 0.30 90 1013.3
20260904180905 74 263 0.0 0.0 0.00 1.23 0.30 93 1013.9
20260904180404 74 263 1.0 3.0 0.00 1.23 0.30 93 1013.9
20260904175405 74 77 0.0 0.0 0.00 1.23 0.30 94 1013.9
20260904174905 74 77 0.0 0.0 0.00 1.23 0.30 94 1013.9
20260904174404 73 77 0.0 0.0 0.00 1.23 0.30 94 1014.1
20260904173904 73 77 0.0 0.0 0.00 1.23 0.30 93 1014.0
20260904173404 73 77 0.0 0.0 0.00 1.23 0.30 93 1014.1
20260904172904 74 77 0.0 0.0 0.00 1.23 0.30 93 1014.3
20260904172406 74 77 0.0 0.0 0.00 1.23 0.30 93 1014.2
20260904171905 74 78 0.0 0.0 0.00 1.23 0.30 92 1014.2
20260904171404 74 77 0.0 0.0 0.00 1.23 0.30 92 1014.2
20260904170904 74 242 0.0 0.0 0.00 1.23 0.30 92 1014.2
20260904165905 75 242 0.0 0.0 0.00 1.23 0.30 95 1014.0
20260904165405 74 242 0.0 0.0 0.00 1.23 0.30 96 1014.2
20260904164904 74 242 0.0 0.0 0.00 1.23 0.30 96 1014.2
20260904164404 74 242 0.0 0.0 0.01 1.23 0.30 96 1014.2
20260904163904 73 242 0.0 0.0 0.01 1.23 0.30 96 1014.4
20260904163404 73 242 0.0 0.0 0.01 1.23 0.30 96 1014.6
20260904162904 72 242 0.0 0.0 0.01 1.23 0.30 96 1014.5
20260904162404 72 242 0.0 0.0 0.01 1.23 0.30 96 1014.4
20260904161905 72 242 0.0 0.0 0.02 1.23 0.30 96 1014.3
20260904161404 72 242 0.0 1.0 0.03 1.23 0.30 96 1014.1
20260904160905 72 293 0.0 0.0 0.03 1.23 0.30 96 1014.1
20260904160404 71 293 0.0 0.0 0.04 1.23 0.30 96 1013.8
20260904155904 71 293 0.0 0.0 0.05 1.23 0.30 96 1013.7
20260904155405 71 293 0.0 0.0 0.05 1.23 0.30 96 1013.9
20260904154905 70 293 0.0 0.0 0.06 1.23 0.30 96 1014.2
20260904154405 70 293 0.0 0.0 0.06 1.22 0.29 96 1014.3
20260904153905 70 293 0.0 0.0 0.08 1.22 0.29 96 1014.2
20260904153404 70 293 0.0 0.0 0.08 1.22 0.29 96 1014.4
20260904152906 70 293 0.0 0.0 0.08 1.22 0.29 96 1014.5
20260904152404 70 293 0.0 0.0 0.10 1.22 0.29 96 1014.8
20260904151404 70 293 0.0 0.0 0.26 1.20 0.27 96 1014.9
20260904150905 70 293 0.0 0.0 0.26 1.20 0.27 96 1014.8
20260904150404 70 293 0.0 0.0 0.25 1.19 0.26 96 1014.8
20260904145904 70 293 0.0 0.0 0.24 1.18 0.25 96 1014.8
20260904145404 70 293 0.0 0.0 0.24 1.18 0.25 96 1015.0
20260904144904 70 293 0.0 0.0 0.23 1.17 0.24 96 1015.1
20260904144405 70 293 0.0 0.0 0.22 1.16 0.23 96 1015.1
20260904143904 69 293 0.0 0.0 0.20 1.14 0.21 96 1015.1
20260904142904 69 293 0.0 0.0 0.20 1.14 0.21 96 1015.0
20260904142405 70 293 0.0 0.0 0.18 1.12 0.19 96 1014.6
20260904141905 70 293 0.0 0.0 0.06 1.00 0.07 96 1015.1
20260904141404 70 296 0.0 0.0 0.00 0.94 0.01 96 1015.3
20260904140904 70 296 0.0 0.0 0.00 0.94 0.01 96 1014.8
20260904140404 70 296 0.0 0.0 0.00 0.94 0.01 96 1014.3
20260904135904 70 296 0.0 0.0 0.00 0.94 0.01 96 1014.3
20260904134904 70 297 0.0 0.0 0.00 0.95 0.01 96 1014.3
20260904133404 69 297 0.0 0.0 0.00 0.95 0.01 96 1013.9
20260904132905 69 297 0.0 0.0 0.00 0.95 0.01 96 1013.8
20260904132404 69 297 0.0 0.0 0.00 0.95 0.01 96 1013.7
20260904131905 69 297 0.0 0.0 0.00 0.95 0.01 96 1013.9
20260904130904 69 297 0.0 0.0 0.00 0.95 0.01 96 1013.9
20260904130405 69 297 0.0 0.0 0.00 0.95 0.01 96 1014.0
20260904125404 69 297 0.0 0.0 0.00 0.95 0.01 96 1014.0
20260904124904 68 297 0.0 0.0 0.00 0.95 0.01 96 1014.1
20260904124405 68 297 0.0 0.0 0.00 0.95 0.01 96 1014.2
20260904123904 68 297 0.0 0.0 0.00 0.95 0.01 96 1014.2
20260904123404 68 297 0.0 0.0 0.00 0.95 0.01 96 1014.1
20260904122904 68 297 0.0 0.0 0.00 0.95 0.01 96 1014.1
20260904122404 68 297 0.0 0.0 0.00 0.95 0.01 96 1014.1
20260904121904 68 296 0.0 0.0 0.00 0.95 0.01 96 1014.1
20260904121404 67 300 0.0 0.0 0.00 0.95 0.01 96 1014.3
20260904120904 67 300 0.0 0.0 0.00 0.95 0.01 96 1014.2
20260904120404 67 300 0.0 0.0 0.00 0.95 0.01 96 1014.0
20260904115904 67 300 0.0 0.0 0.00 0.95 0.01 96 1014.1
20260904115404 67 300 0.0 0.0 0.00 0.95 0.01 96 1014.2
20260904114904 67 300 0.0 0.0 0.00 0.95 0.01 96 1014.2
20260904114404 67 300 0.0 0.0 0.00 0.95 0.01 96 1014.1
20260904113904 67 300 0.0 0.0 0.00 0.95 0.01 96 1014.1
20260904113404 67 300 0.0 0.0 0.00 0.95 0.01 96 1014.1
20260904112404 67 300 0.0 0.0 0.00 1.13 0.01 96 1014.2
20260904111904 67 300 0.0 0.0 0.00 1.13 0.01 96 1014.0
20260904111404 67 300 0.0 0.0 0.00 1.14 0.01 96 1013.9
20260904110904 67 300 0.0 0.0 0.00 1.14 0.01 96 1014.0
20260904110404 67 300 0.0 0.0 0.00 1.14 0.01 96 1013.9
20260904105904 67 300 0.0 0.0 0.00 1.14 0.01 96 1013.6
20260904104904 67 300 0.0 0.0 0.00 1.14 0.01 96 1013.5
20260904104404 67 300 0.0 0.0 0.00 1.14 0.01 96 1013.6
20260904103903 67 300 0.0 0.0 0.00 1.14 0.01 96 1013.5
20260904103404 67 300 0.0 0.0 0.00 1.15 0.01 96 1013.4
20260904101905 67 300 0.0 0.0 0.00 1.18 0.01 96 1013.6
20260904101404 67 300 0.0 0.0 0.00 1.26 0.01 96 1013.8
20260904100904 67 300 0.0 0.0 0.00 1.29 0.01 96 1013.8
20260904100404 67 300 0.0 0.0 0.00 1.29 0.01 96 1013.7
20260904095904 67 300 0.0 0.0 0.00 1.29 0.01 96 1013.7
20260904094904 67 300 0.0 0.0 0.00 1.29 0.01 96 1013.7
20260904094404 67 300 0.0 0.0 0.00 1.29 0.01 96 1013.7
20260904093405 67 300 0.0 0.0 0.00 1.29 0.01 96 1013.6
20260904092904 67 300 0.0 0.0 0.00 1.29 0.01 96 1013.6
20260904091904 67 300 0.0 0.0 0.00 1.29 0.01 96 1013.6
20260904090904 67 300 0.0 0.0 0.00 1.29 0.01 96 1013.5
20260904090404 67 300 0.0 0.0 0.00 1.29 0.01 96 1013.4
20260904085904 67 300 0.0 0.0 0.00 1.29 0.01 96 1013.3
20260904085404 67 300 0.0 0.0 0.00 1.29 0.01 96 1013.2
20260904084404 67 300 0.0 0.0 0.00 1.30 0.01 95 1013.3
20260904083904 67 300 0.0 0.0 0.00 1.30 0.01 95 1013.4
20260904083404 67 300 0.0 0.0 0.00 1.30 0.01 96 1013.3
20260904082904 67 300 0.0 0.0 0.00 1.30 0.01 96 1013.3
20260904082404 67 300 0.0 0.0 0.00 1.30 0.01 96 1013.5
20260904081904 67 300 0.0 0.0 0.00 1.30 0.01 96 1013.6
20260904081404 67 300 0.0 0.0 0.00 1.30 0.01 96 1013.6
20260904080904 67 300 0.0 0.0 0.00 1.30 0.01 96 1013.7
20260904080404 67 300 0.0 0.0 0.00 1.30 0.01 96 1013.5
20260904075904 67 300 0.0 0.0 0.00 1.30 0.01 96 1013.4
20260904074904 67 300 0.0 0.0 0.00 1.30 0.01 96 1013.4
20260904074404 67 300 0.0 0.0 0.00 1.30 0.01 96 1013.3
20260904073904 67 300 0.0 0.0 0.00 1.30 0.01 95 1013.2
20260904072404 68 300 0.0 0.0 0.00 1.30 0.01 96 1013.1
20260904071904 68 300 0.0 0.0 0.00 1.30 0.01 96 1013.1
20260904071404 68 300 0.0 0.0 0.00 1.30 0.01 96 1013.0
20260904070903 68 300 0.0 0.0 0.00 1.30 0.01 96 1013.1
20260904070404 68 300 0.0 0.0 0.00 1.30 0.01 95 1012.6
20260904065904 68 300 0.0 0.0 0.00 1.30 0.01 96 1012.5
20260904065404 68 300 0.0 0.0 0.00 1.30 0.01 96 1012.6
20260904064904 68 300 0.0 0.0 0.00 1.30 0.01 96 1012.7
20260904063904 68 300 0.0 0.0 0.00 1.30 0.01 96 1012.9
20260904063404 68 300 0.0 0.0 0.00 1.30 0.01 96 1012.9
20260904062904 68 300 0.0 0.0 0.01 1.30 0.01 96 1012.8
20260904062404 68 300 0.0 0.0 0.01 1.30 0.01 96 1012.8
20260904061904 68 300 0.0 0.0 0.01 1.30 0.01 96 1012.8
20260904061405 68 300 0.0 0.0 0.01 1.30 0.01 96 1012.9
20260904055905 68 300 0.0 0.0 0.01 1.30 0.01 96 1013.0
20260904054405 68 300 0.0 0.0 0.01 1.30 0.01 96 1013.1
20260904053905 68 300 0.0 0.0 0.01 1.30 0.01 96 1013.1
20260904053405 68 300 0.0 0.0 0.01 1.30 0.01 96 1013.2
20260904052905 68 300 0.0 0.0 0.00 1.29 0.00 96 1013.2
20260904051905 68 300 0.0 0.0 0.00 1.29 0.00 96 1013.2
20260904051405 68 300 0.0 0.0 0.00 1.29 0.00 96 1013.1
20260904050405 68 300 0.0 0.0 0.00 1.29 0.00 96 1013.0
20260904045905 68 300 0.0 0.0 0.00 1.29 0.00 96 1012.9
20260904045405 68 300 0.0 0.0 0.00 1.29 0.00 95 1012.7
20260904044905 68 300 0.0 0.0 0.00 1.29 0.00 95 1012.6
20260904044405 68 300 0.0 0.0 0.00 1.29 0.00 95 1012.6
20260904043905 68 300 0.0 0.0 0.00 1.29 0.00 95 1012.4
20260904043405 68 300 0.0 0.0 0.05 1.29 0.00 95 1012.7
20260904042905 68 300 0.0 0.0 0.05 1.29 0.00 95 1012.9
20260904041905 69 300 0.0 0.0 0.14 1.29 0.00 95 1012.8
20260904040905 69 300 0.0 0.0 0.15 1.29 0.00 95 1012.8
20260904040405 69 300 0.0 0.0 0.15 1.29 0.00 96 1012.9
20260904035905 69 300 0.0 0.0 0.15 1.29 1.29 96 1013.2
20260904035405 69 302 0.0 0.0 0.15 1.29 1.29 95 1013.2
20260904034905 69 286 1.0 3.0 0.15 1.29 1.29 95 1012.7
20260904034405 69 276 1.0 3.0 0.15 1.29 1.29 95 1012.3
20260904033905 69 154 1.0 3.0 0.15 1.29 1.29 95 1012.6
20260904033405 69 257 3.0 8.0 0.11 1.25 1.25 95 1012.8
20260904032905 69 267 2.0 5.0 0.10 1.24 1.24 95 1012.1
20260904030905 69 269 0.0 0.0 0.00 1.14 1.14 95 1012.3
20260904030405 69 269 0.0 0.0 0.00 1.14 1.14 95 1012.6
20260904025905 69 269 0.0 0.0 0.00 1.14 1.14 95 1012.6
20260904025405 69 269 0.0 0.0 0.00 1.14 1.14 95 1012.5
20260904024905 69 269 0.0 0.0 0.00 1.14 1.14 95 1012.5
20260904023405 69 180 0.0 0.0 0.00 1.14 1.14 95 1012.6
20260904022905 69 180 0.0 0.0 0.00 1.14 1.14 95 1012.5